DW1029 Belmopan BZ current weather conditions

sailwx.info

Wind from 229

Air temperature 21.1° C
Dewpoint 20.9° C

Last reported at 2019-Dec-13 12:00 UTC.
Time now 2019-Dec-13 12:43 UTC

Location: N 17°15' W 088°46'.
View on Google Maps.

See reports from other nearby stations

  
Tides and Currents Weather Stations Pressure Air Temp Water Temp Dewpoint Dewpoint Depression Visibility Wind Speed Wind Dir Waves Ship Positions
date/time (UTC)wind fromknots sea level pressurealtimeterstation pressurevisibilityair tempwater tempwave heightnotes
2019-Dec-13 12:00 229 21.1
2019-Dec-13 11:45 284 21.1
2019-Dec-13 11:30 262 21.1
2019-Dec-13 11:15 213 21.1
2019-Dec-13 11:00 219 21.1
2019-Dec-13 10:46 198 21.1
2019-Dec-13 10:32 245 21.1
2019-Dec-13 10:17 280 21.7
2019-Dec-13 10:02 272 21.7
2019-Dec-13 09:47 234 0 gusting 4 21.7
2019-Dec-13 09:32 257 2 gusting 6 21.7
2019-Dec-13 09:16 267 21.7
2019-Dec-13 09:02 254 21.7
2019-Dec-13 08:46 254 21.7
2019-Dec-13 08:31 259 21.7
2019-Dec-13 08:17 257 21.7
2019-Dec-13 08:01 276 21.7
2019-Dec-13 07:47 268 21.7
2019-Dec-13 07:32 243 21.7
2019-Dec-13 07:18 257 21.7
2019-Dec-13 07:01 259 21.7
2019-Dec-13 06:48 235 1 gusting 4 21.7
2019-Dec-13 06:32 249 21.7
2019-Dec-13 06:17 276 21.7
2019-Dec-13 06:02 278 22.2
2019-Dec-13 05:46 274 22.2
2019-Dec-13 05:31 290 22.2
2019-Dec-13 05:02 269 22.2
2019-Dec-13 04:47 246 0 gusting 3 22.2
2019-Dec-13 04:32 224 22.2
2019-Dec-13 04:17 225 22.2
2019-Dec-13 04:01 254 22.2
2019-Dec-13 03:46 265 22.2
2019-Dec-13 03:30 220 22.8
2019-Dec-13 03:16 238 22.8
2019-Dec-13 03:00 228 2 gusting 4 22.8
2019-Dec-13 02:46 226 22.8
2019-Dec-13 02:31 251 22.8
2019-Dec-13 02:16 232 22.8
2019-Dec-13 02:01 232 22.8
2019-Dec-13 01:46 225 0 gusting 2 23.3
2019-Dec-13 01:31 215 23.3
2019-Dec-13 01:18 215 23.9
2019-Dec-13 01:00 215 23.3
2019-Dec-13 00:46 215 23.3
2019-Dec-13 00:31 290 0 gusting 1 23.9
2019-Dec-13 00:16 290 23.9
2019-Dec-13 00:02 290 23.9
2019-Dec-12 23:45 290 24.4
2019-Dec-12 23:30 290 24.4
2019-Dec-12 23:15 288 1 gusting 3 25.0
2019-Dec-12 23:01 169 25.0
2019-Dec-12 22:46 169 25.6
2019-Dec-12 22:31 169 25.6
2019-Dec-12 22:16 169 0 gusting 4 25.6
2019-Dec-12 22:01 213 26.1
2019-Dec-12 21:46 213 26.7
2019-Dec-12 21:31 213 1 gusting 4 24.4
2019-Dec-12 21:15 201 23.9
2019-Dec-12 21:01 191 1 gusting 3 22.8
2019-Dec-12 20:45 192 22.8
2019-Dec-12 20:30 148 1 gusting 2 22.2
2019-Dec-12 20:15 089 1 gusting 4 22.8
2019-Dec-12 20:01 132 4 gusting 13 22.8
2019-Dec-12 19:45 095 4 gusting 9 23.9
2019-Dec-12 19:30 096 3 gusting 6 23.3
2019-Dec-12 19:15 020 6 gusting 18 22.8
2019-Dec-12 19:00 040 15 gusting 23 25.6
2019-Dec-12 18:45 005 27.2
2019-Dec-12 18:30 028 26.7
2019-Dec-12 18:15 058 26.1
2019-Dec-12 18:00 355 3 gusting 5 25.0
2019-Dec-12 17:47 355 3 gusting 6 25.0
2019-Dec-12 17:32 355 24.4
2019-Dec-12 17:18 012 23.9
2019-Dec-12 17:02 360 1 gusting 4 25.6
2019-Dec-12 16:47 031 1 gusting 4 25.6
2019-Dec-12 16:33 022 1 gusting 6 25.0
2019-Dec-12 16:18 009 1 gusting 3 25.0
2019-Dec-12 16:01 092 1 gusting 4 24.4
2019-Dec-12 15:47 049 1 gusting 4 23.9
2019-Dec-12 15:31 346 1 gusting 3 23.3
2019-Dec-12 15:17 347 0 gusting 4 23.9
2019-Dec-12 15:02 348 23.3
2019-Dec-12 14:46 024 23.3
2019-Dec-12 14:31 113 22.8
2019-Dec-12 14:16 024 22.8
2019-Dec-12 14:02 024 22.8
2019-Dec-12 13:45 032 22.8
2019-Dec-12 13:30 020 3 gusting 5 22.8
2019-Dec-12 13:15 344 22.8
2019-Dec-12 13:00 011 22.8
2019-Dec-12 12:45 213 22.8
2019-Dec-12 12:30 213 22.8
2019-Dec-12 12:15 274 22.8
2019-Dec-12 12:00 273 22.8
2019-Dec-12 11:46 273 22.8
2019-Dec-12 11:30 273 22.8
2019-Dec-12 11:15 150 22.2
2019-Dec-12 11:00 243 22.2
2019-Dec-12 10:45 243 22.2
2019-Dec-12 10:30 273 22.2
2019-Dec-12 10:15 273 22.2
2019-Dec-12 10:00 273 22.2
2019-Dec-12 09:45 273 21.7
2019-Dec-12 09:30 317 22.2
2019-Dec-12 09:15 319 22.2
2019-Dec-12 09:00 319 22.8
2019-Dec-12 08:45 196 22.2
2019-Dec-12 08:30 196 22.2
2019-Dec-12 08:15 196 22.2
2019-Dec-12 07:47 195 22.2
2019-Dec-12 07:32 196 22.2
2019-Dec-12 07:18 195 22.2
2019-Dec-12 07:03 196 22.2
2019-Dec-12 06:46 195 22.2
2019-Dec-12 06:33 096 22.8
2019-Dec-12 06:16 096 22.8
2019-Dec-12 06:01 096 22.2
2019-Dec-12 05:48 096 22.8
2019-Dec-12 05:33 096 22.8
2019-Dec-12 05:16 096 1 gusting 4 22.8
2019-Dec-12 05:02 080 22.8
2019-Dec-12 04:46 078 2 gusting 6 22.8
2019-Dec-12 04:32 111 1 gusting 4 22.8
2019-Dec-12 04:17 098 0 gusting 13 22.8
2019-Dec-12 04:02 146 22.8
2019-Dec-12 03:47 146 22.8
2019-Dec-12 03:32 146 22.8
2019-Dec-12 03:17 120 1 gusting 4 22.8
2019-Dec-12 03:01 132 0 gusting 3 22.8
2019-Dec-12 02:46 134 22.8
2019-Dec-12 02:32 134 22.8
2019-Dec-12 02:16 134 0 gusting 2 22.2
2019-Dec-12 02:01 134 22.2
2019-Dec-12 01:46 163 1 gusting 7 22.2
2019-Dec-12 01:32 136 3 gusting 6 23.3
2019-Dec-12 01:16 020 24.4
2019-Dec-12 01:02 020 24.4
2019-Dec-12 00:46 020 1 gusting 3 24.4
2019-Dec-12 00:31 005 1 gusting 2 24.4
2019-Dec-12 00:16 005 24.4
2019-Dec-12 00:01 005 24.4
2019-Dec-11 23:46 005 24.4
2019-Dec-11 23:31 005 0 gusting 3 24.4
2019-Dec-11 23:16 030 3 gusting 5 25.0
2019-Dec-11 23:02 013 25.0
2019-Dec-11 22:46 026 1 gusting 3 25.0
2019-Dec-11 22:31 119 25.0
2019-Dec-11 22:16 119 25.0
2019-Dec-11 22:01 150 0 gusting 3 25.0
2019-Dec-11 21:47 156 0 gusting 2 25.0
2019-Dec-11 21:32 157 25.0
2019-Dec-11 21:17 157 24.4
2019-Dec-11 21:01 155 0 gusting 3 23.9
2019-Dec-11 20:46 178 24.4
2019-Dec-11 20:31 170 1 gusting 2 23.9
2019-Dec-11 20:16 205 0 gusting 6 23.3
2019-Dec-11 20:01 191 22.8
2019-Dec-11 19:48 157 1 gusting 2 22.8
2019-Dec-11 19:31 155 1 gusting 5 22.8
2019-Dec-11 19:15 115 1 gusting 3 22.8
2019-Dec-11 19:01 229 3 gusting 5 22.2
2019-Dec-11 18:46 313 0 gusting 5 22.2
2019-Dec-11 18:31 005 5 gusting 10 22.2
2019-Dec-11 18:16 057 4 gusting 14 22.8
2019-Dec-11 18:01 113 2 gusting 6 22.8
2019-Dec-11 17:46 329 2 gusting 4 23.3
2019-Dec-11 17:32 126 2 gusting 12 23.3
2019-Dec-11 17:15 129 2 gusting 6 25.6
2019-Dec-11 17:00 092 3 gusting 8 24.4
2019-Dec-11 16:45 144 6 gusting 20 23.3
2019-Dec-11 16:30 180 2 gusting 6 26.7
2019-Dec-11 16:15 226 26.1
2019-Dec-11 16:01 111 1 gusting 5 26.1
2019-Dec-11 15:45 329 26.7
2019-Dec-11 15:30 026 26.1
2019-Dec-11 15:15 244 25.0
2019-Dec-11 15:00 245 23.9
2019-Dec-11 14:45 214 23.9
2019-Dec-11 14:32 282 23.3
2019-Dec-11 14:18 258 23.3
2019-Dec-11 14:03 249 23.3
2019-Dec-11 13:47 249 23.3
2019-Dec-11 13:31 249 22.8
2019-Dec-11 13:17 249 22.8
2019-Dec-11 13:03 249 22.2
2019-Dec-11 12:47 248 22.2
2019-Dec-11 12:31 248 22.2
2019-Dec-11 12:16 249 22.2
2019-Dec-11 12:00 249 22.2